| time (UTC) | temp C | wind direction | speed KPH | gust KPH | rain 1hr cm | rain 24hr cm | rain mn cm | humidity % | barometer mb |
| 20260506234502 | 11 | 97 | 1.6 | 6.4 | 0.00 | 4.06 | 0.00 | 81 | 1010.8 |
| 20260506233112 | 11 | 126 | 0.0 | 3.2 | 0.00 | 4.06 | 0.00 | 80 | 1010.7 |
| 20260506231613 | 12 | 126 | 1.6 | 4.8 | 0.00 | 4.06 | 0.00 | 78 | 1010.8 |
| 20260506230104 | 11 | 82 | 1.6 | 4.8 | 0.00 | 4.06 | 0.00 | 80 | 1011.0 |
| 20260506224555 | 12 | 81 | 1.6 | 4.8 | 0.00 | 4.06 | 0.00 | 80 | 1011.0 |
| 20260506223052 | 12 | 82 | 1.6 | 4.8 | 0.00 | 4.06 | 0.00 | 79 | 1011.0 |
| 20260506221555 | 12 | 88 | 0.0 | 4.8 | 0.00 | 4.06 | 0.00 | 79 | 1010.9 |
| 20260506220048 | 12 | 85 | 1.6 | 4.8 | 0.00 | 4.06 | 0.00 | 80 | 1010.7 |
| 20260506214550 | 11 | 94 | 1.6 | 6.4 | 0.00 | 4.06 | 4.06 | 82 | 1010.7 |
| 20260506213045 | 12 | 304 | 0.0 | 4.8 | 0.00 | 4.06 | 4.06 | 81 | 1010.6 |
| 20260506211545 | 12 | 306 | 0.0 | 0.0 | 0.00 | 4.06 | 4.06 | 81 | 1010.5 |
| 20260506210045 | 12 | 306 | 0.0 | 0.0 | 0.00 | 4.06 | 4.06 | 80 | 1010.5 |
| 20260506204544 | 12 | 306 | 0.0 | 0.0 | 0.00 | 4.06 | 4.06 | 76 | 1010.3 |
| 20260506203044 | 13 | 306 | 0.0 | 3.2 | 0.00 | 4.06 | 4.06 | 75 | 1010.2 |
| 20260506201543 | 13 | 298 | 1.6 | 6.4 | 0.00 | 4.06 | 4.06 | 74 | 1010.1 |
| 20260506200046 | 13 | 114 | 1.6 | 14.5 | 0.00 | 4.06 | 4.06 | 73 | 1009.9 |
| 20260506194548 | 14 | 348 | 1.6 | 8.0 | 0.00 | 4.06 | 4.06 | 72 | 1009.6 |
| 20260506193042 | 13 | 197 | 3.2 | 14.5 | 0.00 | 4.06 | 4.06 | 72 | 1009.3 |
| 20260506191541 | 13 | 308 | 1.6 | 6.4 | 0.00 | 4.06 | 4.06 | 73 | 1009.2 |
| 20260506190040 | 13 | 241 | 1.6 | 12.9 | 0.00 | 4.06 | 4.06 | 73 | 1009.0 |
| 20260506184540 | 13 | 309 | 1.6 | 6.4 | 0.00 | 4.06 | 4.06 | 73 | 1008.7 |
| 20260506183039 | 14 | 142 | 0.0 | 4.8 | 0.00 | 4.06 | 4.06 | 70 | 1008.9 |
| 20260506181538 | 15 | 142 | 1.6 | 8.0 | 0.00 | 4.06 | 4.06 | 70 | 1008.7 |
| 20260506180041 | 15 | 116 | 0.0 | 9.7 | 0.00 | 4.06 | 4.06 | 71 | 1008.5 |
| 20260506174536 | 14 | 134 | 0.0 | 12.9 | 0.00 | 4.06 | 4.06 | 72 | 1008.4 |
| 20260506173042 | 15 | 182 | 1.6 | 6.4 | 0.00 | 4.06 | 4.06 | 75 | 1008.2 |
| 20260506171533 | 15 | 331 | 0.0 | 3.2 | 0.00 | 4.06 | 4.06 | 79 | 1008.3 |
| 20260506170032 | 15 | 188 | 0.0 | 0.0 | 0.00 | 4.06 | 4.06 | 81 | 1008.2 |
| 20260506164537 | 15 | 188 | 0.0 | 0.0 | 0.00 | 4.06 | 4.06 | 80 | 1008.1 |
| 20260506163032 | 16 | 188 | 0.0 | 3.2 | 0.00 | 4.06 | 4.06 | 79 | 1008.1 |
| 20260506161533 | 16 | 174 | 0.0 | 6.4 | 0.00 | 4.06 | 4.06 | 76 | 1008.1 |
| 20260506160030 | 16 | 246 | 0.0 | 3.2 | 0.00 | 4.06 | 4.06 | 78 | 1008.1 |
| 20260506154528 | 17 | 198 | 0.0 | 6.4 | 0.00 | 4.06 | 4.06 | 73 | 1007.9 |
| 20260506153029 | 17 | 174 | 0.0 | 0.0 | 0.00 | 4.06 | 4.06 | 82 | 1007.8 |
| 20260506151527 | 17 | 126 | 0.0 | 3.2 | 0.00 | 4.06 | 4.06 | 83 | 1008.0 |
| 20260506150027 | 17 | 113 | 1.6 | 4.8 | 0.00 | 4.06 | 4.06 | 81 | 1008.1 |
| 20260506144531 | 17 | 74 | 0.0 | 8.0 | 0.00 | 4.06 | 4.06 | 79 | 1007.8 |
| 20260506143033 | 17 | 235 | 0.0 | 11.3 | 0.00 | 4.06 | 4.06 | 79 | 1007.9 |
| 20260506141524 | 17 | 298 | 3.2 | 12.9 | 0.00 | 4.06 | 4.06 | 76 | 1008.1 |
| 20260506140022 | 18 | 192 | 1.6 | 8.0 | 0.00 | 4.06 | 4.06 | 80 | 1008.2 |
| 20260506134520 | 18 | 360 | 3.2 | 9.7 | 0.00 | 4.06 | 4.06 | 79 | 1008.6 |
| 20260506133019 | 18 | 360 | 3.2 | 8.0 | 0.03 | 4.06 | 4.06 | 85 | 1008.5 |
| 20260506131519 | 16 | 312 | 1.6 | 9.7 | 0.05 | 4.06 | 4.06 | 85 | 1008.7 |
| 20260506130020 | 15 | 360 | 1.6 | 17.7 | 0.05 | 4.06 | 4.06 | 91 | 1008.7 |
| 20260506124518 | 16 | 210 | 0.0 | 6.4 | 0.15 | 4.06 | 4.06 | 93 | 1009.3 |
| 20260506123021 | 15 | 182 | 0.0 | 6.4 | 0.20 | 4.04 | 4.04 | 93 | 1009.1 |
| 20260506121518 | 15 | 240 | 1.6 | 16.1 | 0.33 | 4.01 | 4.01 | 92 | 1008.9 |
| 20260506120022 | 15 | 230 | 0.0 | 3.2 | 0.33 | 4.01 | 4.01 | 95 | 1008.9 |
| 20260506114519 | 16 | 224 | 0.0 | 4.8 | 0.23 | 3.91 | 3.91 | 93 | 1009.1 |
| 20260506113015 | 16 | 300 | 1.6 | 11.3 | 0.15 | 3.84 | 3.84 | 89 | 1008.9 |
| 20260506111515 | 17 | 332 | 1.6 | 11.3 | 0.00 | 3.68 | 3.68 | 84 | 1008.7 |
| 20260506110014 | 17 | 212 | 0.0 | 12.9 | 0.00 | 3.68 | 3.68 | 84 | 1008.6 |
| 20260506104513 | 18 | 207 | 3.2 | 8.0 | 0.00 | 3.71 | 3.68 | 83 | 1008.6 |
| 20260506103025 | 18 | 185 | 1.6 | 9.7 | 0.00 | 3.71 | 3.68 | 81 | 1008.7 |
| 20260506101512 | 18 | 68 | 6.4 | 20.9 | 0.00 | 3.71 | 3.68 | 82 | 1008.6 |
| 20260506100008 | 18 | 192 | 6.4 | 14.5 | 0.00 | 3.71 | 3.68 | 84 | 1008.5 |
| 20260506094506 | 17 | 178 | 4.8 | 16.1 | 0.00 | 4.29 | 3.68 | 89 | 1008.6 |
| 20260506093100 | 16 | 69 | 3.2 | 11.3 | 0.00 | 4.29 | 3.68 | 91 | 1008.7 |
| 20260506091557 | 15 | 360 | 3.2 | 12.9 | 0.03 | 4.29 | 3.68 | 93 | 1008.5 |
| 20260506090056 | 15 | 360 | 3.2 | 12.9 | 0.05 | 4.29 | 3.68 | 95 | 1008.8 |
| 20260506084552 | 15 | 360 | 1.6 | 12.9 | 0.05 | 4.88 | 3.68 | 98 | 1008.7 |
| 20260506083049 | 14 | 219 | 0.0 | 6.4 | 0.10 | 4.88 | 3.68 | 99 | 1008.6 |
| 20260506081549 | 13 | 71 | 0.0 | 6.4 | 0.23 | 4.85 | 3.66 | 98 | 1008.8 |
| 20260506073043 | 12 | 126 | 0.0 | 3.2 | 0.33 | 4.78 | 3.58 | 98 | 1008.8 |
| 20260506071549 | 12 | 223 | 0.0 | 6.4 | 0.23 | 4.65 | 3.43 | 98 | 1008.9 |
| 20260506070104 | 12 | 64 | 1.6 | 8.0 | 0.15 | 4.50 | 3.30 | 98 | 1008.8 |